DW6386 Weather Reports


time (UTC)temp
C
wind
direction
speed
KPH
gust
KPH
rain 1hr
cm
rain 24hr
cm
rain mn
cm
humidity
%
barometer
mb
20260505204600 24 25 6.4 14.5 0.00 0.00 0.00 47 1009.5
20260505203055 24 27 6.4 14.5 0.00 0.00 0.00 47 1009.9
20260505201551 25 53 6.4 14.5 0.00 0.00 0.00 45 1010.2
20260505200048 25 34 1.6 14.5 0.00 0.00 0.00 50 1010.4
20260505194546 24 15 3.2 12.9 0.00 0.00 0.00 53 1010.6
20260505193045 23 80 6.4 17.7 0.00 0.00 0.00 52 1010.8
20260505191550 23 234 1.6 6.4 0.00 0.00 0.00 57 1010.9
20260505190037 22 272 0.0 4.8 0.00 0.00 0.00 58 1011.3
20260505184532 22 11 3.2 16.1 0.00 0.00 0.00 56 1011.5
20260505183030 22 41 1.6 14.5 0.00 0.00 0.00 55 1011.8
20260505181528 22 277 4.8 16.1 0.00 0.00 0.00 56 1012.0
20260505180041 22 32 4.8 12.9 0.00 0.00 0.00 56 1012.3
20260505174532 22 343 4.8 14.5 0.00 0.00 0.00 59 1012.6
20260505173023 21 20 4.8 14.5 0.00 0.00 0.00 61 1012.8
20260505171529 22 55 6.4 11.3 0.00 0.00 0.00 60 1013.1
20260505170027 21 276 1.6 14.5 0.00 0.00 0.00 63 1013.5
20260505164519 21 225 3.2 9.7 0.00 0.00 0.00 63 1013.5
20260505163017 20 60 1.6 6.4 0.00 0.00 0.00 63 1013.6
20260505161514 20 276 3.2 6.4 0.00 0.00 0.00 62 1013.7
20260505153010 20 46 1.6 8.0 0.00 0.00 0.00 63 1013.6
20260505151507 19 352 1.6 9.7 0.00 0.00 0.00 65 1013.7
20260505124538 13 194 0.0 0.0 0.00 0.00 0.00 94 1013.6
20260505123054 12 207 0.0 1.6 0.00 0.00 0.00 95 1013.5
20260505121535 12 106 0.0 0.0 0.00 0.00 0.00 97 1013.5
20260505120033 10 105 0.0 0.0 0.00 0.00 0.00 97 1013.3
20260505114531 9 119 0.0 0.0 0.00 0.00 0.00 97 1013.2
20260505113035 8 120 0.0 0.0 0.00 0.00 0.00 97 1013.0
20260505111547 8 120 0.0 0.0 0.00 0.00 0.00 96 1012.7
20260505101519 8 120 0.0 0.0 0.00 0.00 0.00 95 1012.5
20260505100022 8 120 0.0 0.0 0.00 0.00 0.00 96 1012.5
20260505094517 8 119 0.0 0.0 0.00 0.00 0.00 95 1012.5
20260505093014 8 119 0.0 0.0 0.00 0.00 0.00 95 1012.3
20260505091511 8 119 0.0 0.0 0.00 0.00 0.00 95 1012.4
20260505090010 9 119 0.0 0.0 0.00 0.00 0.00 95 1012.4
20260505084516 9 119 0.0 0.0 0.00 0.00 0.00 95 1012.2
20260505083013 9 119 0.0 0.0 0.00 0.00 0.00 95 1012.1
20260505081505 9 119 0.0 0.0 0.00 0.00 0.00 94 1012.1
20260505080007 9 119 0.0 0.0 0.00 0.00 0.00 93 1011.9
20260505074600 10 119 0.0 0.0 0.00 0.00 0.00 94 1012.0
20260505073107 10 119 0.0 0.0 0.00 0.00 0.00 94 1011.9
20260505071557 10 119 0.0 0.0 0.00 0.00 0.00 93 1012.1
20260505070055 10 119 0.0 0.0 0.00 0.00 0.00 93 1012.2
20260505064601 10 119 0.0 0.0 0.00 0.00 0.00 91 1012.1
20260505063053 10 119 0.0 0.0 0.00 0.00 0.00 92 1012.2
20260505061548 11 119 0.0 0.0 0.00 0.00 0.00 91 1012.2
20260505060046 11 119 0.0 0.0 0.00 0.00 0.00 91 1012.2
20260505054553 11 119 0.0 0.0 0.00 0.00 0.00 89 1012.3
20260505053041 11 119 0.0 0.0 0.00 0.00 0.00 88 1012.2
20260505051540 11 119 0.0 0.0 0.00 0.00 0.00 88 1012.1
20260505041531 13 100 0.0 0.0 0.00 0.00 0.00 82 1011.7
20260505040023 13 100 0.0 0.0 0.00 0.00 0.00 81 1011.8
20260505034522 14 99 0.0 0.0 0.00 0.00 0.00 79 1011.8
20260505033022 15 94 0.0 0.0 0.00 0.00 0.00 78 1011.8
20260505031522 15 91 0.0 0.0 0.00 0.00 0.00 76 1011.7
20260505030021 16 88 0.0 0.0 0.00 0.00 0.00 72 1011.8
20260505024536 17 78 0.0 3.2 0.00 0.00 0.00 69 1011.9
20260505023021 17 72 0.0 0.0 0.00 0.00 0.00 69 1011.9
20260505021520 18 72 0.0 0.0 0.00 0.00 0.00 66 1011.9
20260505020019 18 58 0.0 4.8 0.00 0.00 0.00 64 1011.8
20260505014519 18 55 0.0 4.8 0.00 0.00 0.00 63 1011.6
20260505013022 19 46 0.0 8.0 0.00 0.00 0.00 63 1011.5
20260505011517 19 86 0.0 0.0 0.00 0.00 0.00 64 1011.4
20260505010016 19 46 0.0 6.4 0.00 0.00 0.00 64 1011.3
20260505004521 20 60 0.0 0.0 0.00 0.00 0.00 62 1011.2
20260505003016 21 60 0.0 0.0 0.00 0.00 0.00 59 1011.0
20260505001516 21 57 0.0 14.5 0.00 0.00 0.00 58 1010.9
20260505000028 22 56 0.0 8.0 0.00 0.00 0.00 56 1010.8
20260504234514 22 62 1.6 12.9 0.00 0.00 0.00 54 1010.8
20260504233020 22 5 1.6 11.3 0.00 0.00 0.00 53 1010.8
20260504231524 22 72 1.6 11.3 0.00 0.00 0.00 52 1010.8
20260504230016 23 43 4.8 12.9 0.00 0.00 0.00 49 1010.8
20260504224514 23 35 6.4 14.5 0.00 0.00 0.00 45 1010.8
20260504223010 23 24 3.2 11.3 0.00 0.00 0.00 47 1010.8
20260504221509 23 9 3.2 12.9 0.00 0.00 0.00 48 1010.8
20260504220016 23 27 3.2 12.9 0.00 0.00 0.00 48 1010.7
20260504214509 23 56 1.6 11.3 0.00 0.00 0.00 50 1010.8
20260504213009 23 45 1.6 9.7 0.00 0.00 0.00 50 1010.9
20260504211502 23 41 3.2 17.7 0.00 0.00 0.00 51 1011.1
20260504210111 24 54 1.6 17.7 0.00 0.00 0.00 50 1011.2